Oceana NAS, VA

3:41 AM EDT on March 27, 2017 (GMT -0400)
Oceana Naval Air Station

Weather History for KNTU - January, 2014

Change the Weather History Date:

Sunday, January 5, 2014

  Actual Average Record
Temperature  
Mean Temperature 49 °F -  
Max Temperature 63 °F 50 °F 75 °F (2004)
Min Temperature 35 °F 32 °F 18 °F (2001)
Degree Days  
Heating Degree Days 16    
Moisture  
Dew Point 49 °F    
Average Humidity 85    
Maximum Humidity 93    
Minimum Humidity 70    
Precipitation  
Precipitation 0.00 in - - ()
Sea Level Pressure  
Sea Level Pressure 30.07 in    
Wind  
Wind Speed 6 mph (SSE)    
Max Wind Speed 15 mph    
Max Gust Speed 22 mph    
Visibility 10 miles    
Events      
Averages and records for this station are not official NWS values.
T = Trace of Precipitation, MM = Missing Value Source: NWS Daily Summary

Daily Weather History Graph

Daily Weather History Graph

Search for Another Location

Airport or City:

Trip Planner

Search our weather history database for the weather conditions in past years. The results will help you decide how hot, cold, wet, or windy it might be!

Date:

Astronomy

Jan. 05, 2014 Rise Set
Actual Time 7:17 AM EST 5:02 PM EST
Civil Twilight 6:48 AM EST 5:30 PM EST
Nautical Twilight 6:16 AM EST 6:02 PM EST
Astronomical Twilight 5:44 AM EST 6:34 PM EST
Moon 10:05 AM EST (1/5) 10:18 PM EST (1/5)
Length of Visible Light 10h 42m
Length of Day
9h 44m
Waxing Crescent, 24% of the Moon is Illuminated
Jan 5
Waxing Crescent
Jan 7
First Quarter
Jan 15
Full
Jan 24
Last Quarter
Jan 30
New

Hourly Weather History & Observations

Time (EST) Temp. Windchill Dew Point Humidity Pressure Visibility Wind Dir Wind Speed Gust Speed Precip Events Conditions
12:56 AM 36.0 °F - 30.9 °F 82% 30.28 in 10.0 mi Calm Calm - N/A   Mostly Cloudy
1:56 AM 35.1 °F 32.2 °F 32.0 °F 89% 30.29 in 10.0 mi NNW 3.5 mph - N/A   Mostly Cloudy
2:56 AM 36.0 °F 31.1 °F 32.0 °F 86% 30.29 in 10.0 mi NW 5.8 mph - N/A   Mostly Cloudy
3:56 AM 37.9 °F 35.5 °F 34.0 °F 86% 30.27 in 10.0 mi North 3.5 mph - N/A   Mostly Cloudy
4:56 AM 39.9 °F - 36.0 °F 86% 30.26 in 10.0 mi Calm Calm - N/A   Mostly Cloudy
5:56 AM 41.0 °F 39.0 °F 37.0 °F 86% 30.25 in 10.0 mi NE 3.5 mph - N/A   Mostly Cloudy
6:56 AM 41.0 °F - 37.9 °F 89% 30.26 in 10.0 mi Calm Calm - N/A   Overcast
7:56 AM 41.0 °F 39.0 °F 37.0 °F 86% 30.26 in 10.0 mi ENE 3.5 mph - N/A   Overcast
8:56 AM 43.0 °F - 39.0 °F 86% 30.24 in 10.0 mi Calm Calm - N/A   Overcast
9:56 AM 53.1 °F - 48.0 °F 83% 30.22 in 10.0 mi SSE 6.9 mph - N/A   Mostly Cloudy
10:56 AM 60.1 °F - 52.0 °F 75% 30.18 in 10.0 mi SSE 11.5 mph - N/A   Mostly Cloudy
11:56 AM 61.0 °F - 51.1 °F 70% 30.15 in 10.0 mi SSE 12.7 mph 20.7 mph N/A   Mostly Cloudy
12:56 PM 61.0 °F - 52.0 °F 72% 30.11 in 10.0 mi SSE 13.8 mph 21.9 mph N/A   Overcast
1:56 PM 62.1 °F - 53.1 °F 72% 30.09 in 10.0 mi SSE 11.5 mph - N/A   Mostly Cloudy
2:56 PM 61.0 °F - 53.1 °F 75% 30.05 in 10.0 mi SE 11.5 mph - N/A   Mostly Cloudy
3:56 PM 57.9 °F - 52.0 °F 81% 30.04 in 10.0 mi SE 8.1 mph - N/A   Overcast
4:56 PM 59.0 °F - 54.0 °F 83% 30.01 in 10.0 mi SSE 12.7 mph - N/A   Overcast
5:56 PM 60.1 °F - 55.0 °F 83% 29.99 in 10.0 mi SSE 15.0 mph 20.7 mph N/A   Overcast
6:56 PM 59.0 °F - 55.9 °F 90% 29.96 in 10.0 mi SSE 9.2 mph - 0.00 in   Overcast
7:56 PM 60.1 °F - 57.0 °F 90% 29.94 in 10.0 mi SSE 12.7 mph - N/A   Overcast
8:56 PM 61.0 °F - 57.9 °F 90% 29.91 in 10.0 mi South 9.2 mph - N/A   Mostly Cloudy
9:15 PM 61.0 °F - 59.0 °F 93% 29.90 in 10.0 mi South 6.9 mph - 0.00 in   Overcast
9:56 PM 63.0 °F - 61.0 °F 93% 29.89 in 10.0 mi South 9.2 mph 18.4 mph 0.00 in   Overcast
10:10 PM 63.0 °F - 60.1 °F 90% 29.87 in 10.0 mi South 11.5 mph - N/A   Mostly Cloudy
10:17 PM 63.0 °F - 60.1 °F 90% 29.87 in 10.0 mi South 11.5 mph - N/A   Mostly Cloudy
10:56 PM 63.0 °F - 60.1 °F 90% 29.85 in 10.0 mi SSW 10.4 mph - N/A   Overcast
11:35 PM 63.0 °F - 60.1 °F 90% 29.82 in 10.0 mi South 10.4 mph - N/A   Overcast
11:56 PM 63.0 °F - 61.0 °F 93% 29.81 in 10.0 mi South 9.2 mph - N/A   Overcast